{"data":{"norad_id":42741,"intl_designator":"2017-029B","name":"EUTELSAT 172B","alt_names":[],"object_type":"PAYLOAD","status":"ACTIVE","operator":null,"country":"EUTE","launch_date":"2017-06-01","launch_site_code":"FRGUI","launch_vehicle":null,"mission":null,"orbit_class":"UNKNOWN","rcs_meters":null,"size_class":null,"mass_kg":null,"dimensions":null,"purposes":["comms"],"wikipedia_slug":null,"has_3d_model":false,"image_url":null,"decayed_at":null,"tle_current":{"epoch":"2026-05-24T21:43:01.975872Z","epoch_age_seconds":80366,"freshness":"FRESH","line1":"1 42741U 17029B   26144.90488398 -.00000009  00000+0  00000+0 0  9991","line2":"2 42741   0.0354 145.4088 0000172 168.5082  66.3392  1.00270791 33509","mean_motion":1.00270791,"eccentricity":1.72e-5,"inclination_deg":0.0354,"raan_deg":145.4088,"arg_perigee_deg":168.5082,"mean_anomaly_deg":66.3392,"bstar":0,"rev_number":3350,"period_min":1436.1111402821,"perigee_km":35786.148379593,"apogee_km":35787.598855959,"semimajor_km":42165.010617776,"source":"CELESTRAK","updated_at":"2026-05-25T13:38:14.045154Z"}}}